Regional Weather Roundup
Issued by NWS Green Bay, WI

Home | Current Version | Previous Version | Graphics & Text | Print | Product List | Glossary Off
Versions: 1 2 3 4 5 6 7 8 9 10 11 12 13 14 15 16 17 18 19 20 21 22 23 24 25 26 27 28 29 30 31 32 33 34 35 36 37 38 39 40 41 42 43 44 45 46 47 48 49 50

000
ASUS43 KGRB 171010
RWRGRB

NORTH-CENTRAL AND NORTHEAST WISCONSIN REGIONAL WEATHER ROUNDUP
NATIONAL WEATHER SERVICE GREEN BAY WI
500 AM CDT WED SEP 17 2014

WIZ005-009-010>012-018-019-171100-
NORTH CENTRAL WISCONSIN

CITY           SKY/WX    TMP DP  RH WIND       PRES   REMARKS
IRONWOOD       PTCLDY    50  43  76 SW9       29.91F
MANITOWISH WTR PTCLDY    44  42  93 CALM      29.96R
ARBOR VITAE    PTCLDY    42  39  91 SW3       29.96F
EAGLE RIVER    CLEAR     43  42  94 CALM      29.96S
LAND O LAKES   CLEAR     40  40  98 CALM      29.97S
RHINELANDER    CLEAR     44  41  89 SW7       29.98F
PHILLIPS       CLEAR     40  39  96 CALM      29.97S
ANTIGO         CLEAR     37  37  98 CALM      30.00S
TOMAHAWK       CLEAR     33  32  96 CALM      29.99S
MERRILL        PTCLDY    34  34 100 CALM      29.99F FOG
$$

WIZ013-073-171100-
NORTHEAST WISCONSIN

CITY           SKY/WX    TMP DP  RH WIND       PRES   REMARKS
IRON MOUNTAIN  CLOUDY    51  42  71 W7        29.95R
MARINETTE      CLEAR     46  43  87 W5        29.97F
OCONTO         CLEAR     42  42 100 CALM      29.99S
$$

WIZ017-030-035>037-045-171100-
CENTRAL WISCONSIN

CITY           SKY/WX    TMP DP  RH WIND       PRES   REMARKS
MEDFORD        CLEAR     40  39  95 CALM      29.98F
WAUSAU         CLEAR     41  40  96 E5        29.99F
MOSINEE        CLEAR     39  39 100 S3        30.01S
MARSHFIELD     CLEAR     43  40  89 CALM      29.99F
WISC RAPIDS    CLEAR     39  38  96 CALM      30.02F
STEVENS POINT  CLEAR     36  35  95 CALM      30.01S
WAUPACA        CLEAR     41  40  96 CALM      30.01F
SHAWANO        CLEAR     44  42  92 CALM      30.00F
CLINTONVILLE   CLEAR     39  37  93 CALM      30.01S
$$

WIZ038-039-048-051-171100-
FOX VALLEY

CITY           SKY/WX    TMP DP  RH WIND       PRES   REMARKS
NWS GREEN BAY  CLEAR     43  41  93 CALM      30.01S
APPLETON       NOT AVBL
OSHKOSH        CLEAR     46  43  89 SW5       30.01F
FOND DU LAC    CLEAR     42  39  89 S5        30.03S
$$

WIZ022-050-052-171100-
EAST CENTRAL WISCONSIN

CITY           SKY/WX    TMP DP  RH WIND       PRES   REMARKS
STURGEON BAY   CLEAR     50  45  81 SW6       30.00S
MANITOWOC      CLEAR     47  44  90 W5        30.01F
SHEBOYGAN      CLEAR     42  40  92 CALM      30.02F
$$

LMZ563-521-522-541>543-171100-
LAKESHORE

STATION/POSITION TIME  TEMP    WIND        PRES    VSBY  WAVE
                       AIR SEA DIR/SP/G                  HT/PER
                 (UTC) (F)     (DEG/KT/KT) (MB)    (MI)  (FT/S)
SHEBOYGAN LKSHOR 1000   49 51  250/  9/ 10 1017.0F
KEWAUNEE LKSHORE 1000   48     310/  6/  7 1014.9F
NORTHPORT PIER   1000   53     250/  3/  7 1014.6S
N MID LAKE BUOY  1000   57 57  240/ 10/ 12 1014.6F         2/ 5
S GREEN BAY BUOY 1000   55     VRB 10/ 12  1016.6F
CHAMBERS ISLAND  1000   52     190/  5/  8 1015.2S
MENOMINEE LKSHOR 1000   51     240/  8/ 10 1015.5F
$$


USA.gov is the U.S. government's official web portal to all federal, state and local government web resources and services.